This is the latest recevied weather packets stored in our database for station/object N8HKU-5. If no packets are shown the sender has not sent any weather packets the latest 10 day(s).
| Time | Temp. | Humidity | Pressure | Rain* | Wind** | Luminosity | Snow |
|---|---|---|---|---|---|---|---|
| 1778128953 | 6.67° C | 74% | 1010.7 hPa | 0 mm | - | - | - |
| 1778128353 | 6.67° C | 71% | 1010.7 hPa | 0 mm | - | - | - |
| 1778127753 | 6.67° C | 71% | 1010.7 hPa | 0 mm | - | - | - |
| 1778127153 | 6.67° C | 70% | 1010.7 hPa | 0 mm | - | - | - |
| 1778126553 | 6.67° C | 69% | 1010.8 hPa | 0 mm | - | - | - |
| 1778125953 | 6.67° C | 71% | 1010.9 hPa | 0 mm | - | - | - |
| 1778125354 | 6.67° C | 69% | 1010.9 hPa | 0 mm | - | - | - |
| 1778124754 | 6.67° C | 66% | 1010.9 hPa | 0 mm | - | - | - |
| 1778124153 | 7.22° C | 67% | 1011 hPa | 0 mm | - | - | - |
| 1778123553 | 7.22° C | 69% | 1011 hPa | 0 mm | - | - | - |
| 1778122954 | 7.78° C | 67% | 1011.2 hPa | 0 mm | - | - | - |
| 1778122353 | 7.78° C | 66% | 1011.2 hPa | 0 mm | - | - | - |
| 1778121753 | 7.22° C | 66% | 1011.2 hPa | 0 mm | - | - | - |
| 1778121153 | 7.22° C | 71% | 1011.3 hPa | 0 mm | - | - | - |
| 1778120554 | 7.22° C | 72% | 1011.2 hPa | 0 mm | - | - | - |
| 1778119953 | 7.22° C | 72% | 1011.1 hPa | 0 mm | - | - | - |
| 1778119353 | 7.22° C | 72% | 1011 hPa | 0 mm | - | - | - |
| 1778118753 | 7.22° C | 68% | 1010.9 hPa | 0 mm | - | - | - |
| 1778118154 | 7.22° C | 68% | 1010.8 hPa | 0 mm | - | - | - |
| 1778117553 | 7.78° C | 64% | 1010.7 hPa | 0 mm | - | - | - |
| 1778116953 | 7.78° C | 63% | 1010.6 hPa | 0 mm | - | - | - |
| 1778116353 | 8.33° C | 61% | 1010.6 hPa | 0 mm | - | - | - |
| 1778115753 | 8.89° C | 59% | 1010.6 hPa | 0 mm | - | - | - |
| 1778115153 | 9.44° C | 57% | 1010.6 hPa | 0 mm | - | - | - |
| 1778114553 | 10° C | 55% | 1010.5 hPa | 0 mm | - | - | - |
* Rain latest hour (hover to see other rain measurements)
** Current wind speed in m/s (hover to see current wind gust speed)